Location: Lafig�re
(44.4503°N, 4.0357°E)
Time: 10:07:23
(UTC+00:00)

Tiros 1 - Pass Details

Date: 26 January 2021
Orbit: 630 x 664 km, 48.4° (Epoch: 07 March)

Event Time Altitude Azimuth Distance (km) Brightness Sun altitude
Rises 20:27:27 0° 287° (WNW) 2,923 11.4 -39.5°
Reaches altitude 10° 20:29:48 10° 291° (WNW) 2,012 10.3 -39.9°
Enters shadow 20:30:00 11° 292° (WNW) 1,937 10.2 -40.0°
